Location: Le Castellard
(44.1862°N, 6.1301°E)
Time: 11:13:27
(UTC+00:00)

CZ-3 R/B - Pass Details

Date: 18 January 2020
Orbit: 346 x 10270 km, 28.4° (Epoch: 20 February)

Event Time Altitude Azimuth Distance (km) Brightness Sun altitude
Exits shadow 04:55:43 17° 245° (WSW) 6,274 5.1 -23.0°
Maximum altitude 05:07:35 33° 197° (SSW) 2,779 3.7 -20.9°
Drops below altitude 10° 05:13:44 10° 134° (SE) 2,776 4.7 -19.8°
Sets 05:15:39 0° 123° (ESE) 3,287 5.5 -19.5°
